Location: Amherst
(42.5000°N, 72.5000°W)
Time: 20:23:21
(UTC-04:00)

ISS - Pass Details

Date: 16 July 2018
Orbit: 402 x 408 km, 51.6° (Epoch: 17 July)

Event Time Altitude Azimuth Distance (km) Brightness Sun altitude
Exits shadow 01:09:47 26° 359° (N) 849 -1.6 -26.1°
Drops below altitude 10° 01:12:05 10° 41° (NE) 1,469 -0.3 -26.0°
Sets 01:14:23 0° 53° (NE) 2,333 0.6 -26.0°
